CFC3436 BIKF-EGPK

Flight info

Callsign CFC3436
Flight time 2h 13m
Altitude 35000
Route OSKUM3A OSKUM DCT RATSU/N0453F350 DCT STN
Aircraft A332/H-SDE3GHIJ2J3J5M1RVWXY/LB2D1

Departure

Time 2026-05-04 21:08
Airport Keflavik International Airport (BIKF)

Arrival

Time 2026-05-04 23:21
Airport Glasgow Prestwick Airport (EGPK)
Time Latitude Longitude Altitude Speed Heading
2026-05-04 20:40 63.98186 -22.58616 145 ft 0 kts
2026-05-04 20:54 63.98180 -22.58616 145 ft 2 kts 358°
2026-05-04 20:54 63.98166 -22.58612 145 ft 2 kts 344°
2026-05-04 20:54 63.98156 -22.58604 145 ft 1 kts 327°
2026-05-04 20:55 63.98150 -22.58592 145 ft 1 kts 308°
2026-05-04 20:55 63.98145 -22.58574 145 ft 2 kts 291°
2026-05-04 20:55 63.98142 -22.58548 145 ft 2 kts 277°
2026-05-04 20:55 63.98141 -22.58525 145 ft 1 kts 272°
2026-05-04 20:56 63.98141 -22.58507 145 ft 1 kts 271°
2026-05-04 20:56 63.98141 -22.58501 145 ft 2 kts 270°
2026-05-04 20:56 63.98141 -22.58503 145 ft 0 kts 270°
2026-05-04 21:01 63.98141 -22.58586 145 ft 11 kts 270°
2026-05-04 21:01 63.98133 -22.58818 145 ft 17 kts 242°
2026-05-04 21:01 63.98042 -22.58847 146 ft 15 kts 158°
2026-05-04 21:02 63.97932 -22.58805 146 ft 17 kts 192°
2026-05-04 21:02 63.97807 -22.58895 147 ft 21 kts 200°
2026-05-04 21:02 63.97661 -22.59017 147 ft 24 kts 200°
2026-05-04 21:02 63.97497 -22.59157 148 ft 27 kts 201°
2026-05-04 21:03 63.97316 -22.59315 148 ft 26 kts 201°
2026-05-04 21:03 63.97242 -22.59590 148 ft 22 kts 288°
2026-05-04 21:03 63.97299 -22.59941 148 ft 25 kts 291°
2026-05-04 21:03 63.97364 -22.60317 149 ft 20 kts 291°
2026-05-04 21:04 63.97338 -22.60546 149 ft 16 kts 188°
2026-05-04 21:04 63.97203 -22.60535 147 ft 22 kts 178°
2026-05-04 21:04 63.97039 -22.60525 146 ft 26 kts 178°
2026-05-04 21:04 63.96853 -22.60515 147 ft 28 kts 179°
2026-05-04 21:05 63.96671 -22.60393 145 ft 28 kts 119°
2026-05-04 21:05 63.96545 -22.60268 144 ft 19 kts 198°
2026-05-04 21:05 63.96462 -22.60335 143 ft 0 kts 212°
2026-05-04 21:06 63.96462 -22.60338 143 ft 0 kts 219°
2026-05-04 21:06 63.96462 -22.60355 143 ft 1 kts 267°
2026-05-04 21:06 63.96474 -22.60375 143 ft 6 kts 319°
2026-05-04 21:07 63.96542 -22.60486 144 ft 18 kts 341°
2026-05-04 21:07 63.96790 -22.60551 147 ft 71 kts 358°
2026-05-04 21:07 63.97647 -22.60538 171 ft 171 kts
2026-05-04 21:07 63.99085 -22.60547 644 ft 239 kts 356°
2026-05-04 21:08 64.00905 -22.60659 1544 ft 288 kts 357°
2026-05-04 21:08 64.02885 -22.60641 2727 ft 278 kts 358°
2026-05-04 21:08 64.04779 -22.60561 3821 ft 270 kts
2026-05-04 21:08 64.06529 -22.59223 4622 ft 277 kts 34°
2026-05-04 21:09 64.07689 -22.55729 5826 ft 282 kts 69°
2026-05-04 21:09 64.07858 -22.51313 7060 ft 285 kts 100°
2026-05-04 21:09 64.07375 -22.46991 8256 ft 288 kts 105°
2026-05-04 21:09 64.06892 -22.42513 9421 ft 294 kts 107°
2026-05-04 21:10 64.05965 -22.38367 10536 ft 297 kts 125°
2026-05-04 21:10 64.04826 -22.34391 11613 ft 302 kts 124°
2026-05-04 21:10 64.03689 -22.30315 12663 ft 308 kts 123°
2026-05-04 21:10 64.02564 -22.26123 13691 ft 313 kts 122°
2026-05-04 21:11 64.01448 -22.21836 14671 ft 318 kts 121°
2026-05-04 21:11 64.00328 -22.17458 15636 ft 323 kts 121°
2026-05-04 21:11 63.99200 -22.13006 16567 ft 328 kts 121°
2026-05-04 21:11 63.98058 -22.08482 17475 ft 332 kts 121°
2026-05-04 21:12 63.96902 -22.03895 18346 ft 337 kts 121°
2026-05-04 21:12 63.95728 -21.99241 19207 ft 342 kts 121°
2026-05-04 21:12 63.94537 -21.94524 20021 ft 346 kts 121°
2026-05-04 21:12 63.93329 -21.89753 20830 ft 352 kts 121°
2026-05-04 21:13 63.92102 -21.84913 21622 ft 356 kts 121°
2026-05-04 21:13 63.90858 -21.80014 22366 ft 361 kts 121°
2026-05-04 21:13 63.89596 -21.75057 23106 ft 365 kts 121°
2026-05-04 21:13 63.88321 -21.70063 23835 ft 369 kts 121°
2026-05-04 21:14 63.87028 -21.65006 24543 ft 373 kts 121°
2026-05-04 21:14 63.85721 -21.59908 25247 ft 376 kts 121°
2026-05-04 21:14 63.84401 -21.54769 25921 ft 380 kts 121°
2026-05-04 21:14 63.83062 -21.49571 26566 ft 384 kts 121°
2026-05-04 21:15 63.81710 -21.44334 27183 ft 388 kts 121°
2026-05-04 21:15 63.80342 -21.39057 27769 ft 392 kts 121°
2026-05-04 21:15 63.78960 -21.33733 28331 ft 395 kts 121°
2026-05-04 21:15 63.77560 -21.28346 28890 ft 399 kts 121°
2026-05-04 21:16 63.76112 -21.22982 29439 ft 403 kts 120°
2026-05-04 21:16 63.75126 -21.17071 29947 ft 407 kts 100°
2026-05-04 21:16 63.74880 -21.11131 30422 ft 411 kts 93°
2026-05-04 21:17 63.74778 -21.06644 30766 ft 413 kts 93°
2026-05-04 21:17 63.74573 -21.00164 31244 ft 416 kts 95°
2026-05-04 21:17 63.74286 -20.93642 31712 ft 419 kts 96°
2026-05-04 21:18 63.73939 -20.87093 32164 ft 422 kts 97°
2026-05-04 21:18 63.73555 -20.80506 32599 ft 426 kts 98°
2026-05-04 21:18 63.73550 -20.80418 32603 ft 426 kts 98°
2026-05-04 21:19 63.73143 -20.73797 33022 ft 429 kts 98°
2026-05-04 21:19 63.72720 -20.67127 33436 ft 431 kts 98°
2026-05-04 21:19 63.72287 -20.60419 33834 ft 434 kts 98°
2026-05-04 21:20 63.71845 -20.53658 34236 ft 437 kts 98°
2026-05-04 21:20 63.71407 -20.46878 34610 ft 440 kts 97°
2026-05-04 21:20 63.70801 -20.40121 34924 ft 442 kts 108°
2026-05-04 21:20 63.69685 -20.33670 35006 ft 443 kts 115°
2026-05-04 21:21 63.66915 -20.21307 35004 ft 443 kts 118°
2026-05-04 21:21 63.64111 -20.08983 35001 ft 443 kts 117°
2026-05-04 21:22 63.61437 -19.96505 35002 ft 444 kts 116°
2026-05-04 21:22 63.58825 -19.83945 35004 ft 446 kts 115°
2026-05-04 21:23 63.56212 -19.71367 35000 ft 445 kts 115°
2026-05-04 21:23 63.53582 -19.58807 35001 ft 445 kts 116°
2026-05-04 21:24 63.50942 -19.46318 35004 ft 444 kts 116°
2026-05-04 21:24 63.48295 -19.33866 35003 ft 444 kts 116°
2026-05-04 21:25 63.45636 -19.21435 34999 ft 444 kts 116°
2026-05-04 21:25 63.42968 -19.09032 35000 ft 444 kts 116°
2026-05-04 21:26 63.40292 -18.96657 34998 ft 443 kts 116°
2026-05-04 21:26 63.37605 -18.84311 34986 ft 443 kts 116°
2026-05-04 21:27 63.34906 -18.71990 35003 ft 443 kts 116°
2026-05-04 21:27 63.32199 -18.59701 35004 ft 443 kts 117°
2026-05-04 21:28 63.29481 -18.47425 35000 ft 443 kts 117°
2026-05-04 21:28 63.26749 -18.35170 34986 ft 443 kts 117°
2026-05-04 21:29 63.24008 -18.22936 35001 ft 443 kts 117°
2026-05-04 21:29 63.21261 -18.10737 35003 ft 443 kts 117°
2026-05-04 21:30 63.18500 -17.98552 35003 ft 443 kts 117°
2026-05-04 21:30 63.15727 -17.86388 35001 ft 443 kts 117°
2026-05-04 21:31 63.11554 -17.68210 35003 ft 443 kts 117°
2026-05-04 21:32 63.08757 -17.56108 34993 ft 443 kts 117°
2026-05-04 21:32 63.05950 -17.44024 35000 ft 444 kts 118°
2026-05-04 21:33 63.03133 -17.31968 35004 ft 443 kts 118°
2026-05-04 21:33 63.00305 -17.19935 35004 ft 443 kts 118°
2026-05-04 21:34 62.97467 -17.07932 35003 ft 443 kts 118°
2026-05-04 21:34 62.94618 -16.95948 35003 ft 443 kts 118°
2026-05-04 21:35 62.91759 -16.83988 35004 ft 443 kts 118°
2026-05-04 21:35 62.88892 -16.72054 34994 ft 443 kts 118°
2026-05-04 21:36 62.86014 -16.60141 35001 ft 443 kts 118°
2026-05-04 21:36 62.83126 -16.48246 35000 ft 443 kts 118°
2026-05-04 21:37 62.80231 -16.36393 35002 ft 443 kts 118°
2026-05-04 21:37 62.77321 -16.24551 35001 ft 443 kts 119°
2026-05-04 21:38 62.74403 -16.12730 35001 ft 443 kts 119°
2026-05-04 21:38 62.71475 -16.00930 35001 ft 443 kts 119°
2026-05-04 21:39 62.68536 -15.89149 34986 ft 443 kts 119°
2026-05-04 21:39 62.65591 -15.77409 35000 ft 443 kts 119°
2026-05-04 21:40 62.62633 -15.65688 35003 ft 443 kts 119°
2026-05-04 21:40 62.59661 -15.53979 34987 ft 444 kts 120°
2026-05-04 21:41 62.56681 -15.42295 35003 ft 443 kts 120°
2026-05-04 21:41 62.53698 -15.30646 35000 ft 443 kts 120°
2026-05-04 21:42 62.50703 -15.19016 35004 ft 443 kts 120°
2026-05-04 21:42 62.47698 -15.07408 35003 ft 443 kts 120°
2026-05-04 21:43 62.44684 -14.95823 35003 ft 443 kts 120°
2026-05-04 21:43 62.41659 -14.84261 35003 ft 443 kts 120°
2026-05-04 21:44 62.38626 -14.72732 35004 ft 443 kts 120°
2026-05-04 21:44 62.35584 -14.61232 34986 ft 443 kts 120°
2026-05-04 21:45 62.34886 -14.58600 35004 ft 443 kts 120°
2026-05-04 21:46 62.32424 -14.49341 35003 ft 443 kts 120°
2026-05-04 21:46 62.31500 -14.45875 35003 ft 443 kts 120°
2026-05-04 21:50 62.29132 -14.37023 35001 ft 443 kts 121°
2026-05-04 21:50 62.26059 -14.25584 34996 ft 443 kts 121°
2026-05-04 21:51 62.22980 -14.14176 34999 ft 443 kts 121°
2026-05-04 21:51 62.19886 -14.02778 35001 ft 443 kts 121°
2026-05-04 21:52 62.16787 -13.91416 35004 ft 443 kts 121°
2026-05-04 21:52 62.13677 -13.80074 34986 ft 443 kts 121°
2026-05-04 21:53 62.10558 -13.68750 35004 ft 443 kts 121°
2026-05-04 21:53 62.07431 -13.57453 35004 ft 443 kts 121°
2026-05-04 21:54 62.04293 -13.46169 34986 ft 443 kts 121°
2026-05-04 21:54 62.01144 -13.34918 34986 ft 443 kts 121°
2026-05-04 21:55 61.97990 -13.23701 34997 ft 443 kts 121°
2026-05-04 21:55 61.94826 -13.12496 35003 ft 443 kts 122°
2026-05-04 21:56 61.91654 -13.01320 35002 ft 443 kts 122°
2026-05-04 21:56 61.88472 -12.90165 35000 ft 443 kts 122°
2026-05-04 21:57 61.85278 -12.79028 34996 ft 443 kts 122°
2026-05-04 21:57 61.82079 -12.67925 35003 ft 443 kts 122°
2026-05-04 21:58 61.78868 -12.56832 35000 ft 443 kts 122°
2026-05-04 21:58 61.75650 -12.45761 35003 ft 443 kts 122°
2026-05-04 21:59 61.72422 -12.34714 35001 ft 443 kts 122°
2026-05-04 21:59 61.69186 -12.23692 35004 ft 443 kts 122°
2026-05-04 22:00 61.65939 -12.12698 34993 ft 443 kts 122°
2026-05-04 22:00 61.62684 -12.01724 35003 ft 443 kts 123°
2026-05-04 22:01 61.59422 -11.90777 35003 ft 443 kts 123°
2026-05-04 22:01 61.56150 -11.79851 34986 ft 443 kts 123°
2026-05-04 22:02 61.52872 -11.68954 35003 ft 443 kts 123°
2026-05-04 22:02 61.49587 -11.58084 35004 ft 443 kts 123°
2026-05-04 22:03 61.46290 -11.47229 35004 ft 443 kts 123°
2026-05-04 22:03 61.42983 -11.36397 34998 ft 443 kts 123°
2026-05-04 22:04 61.39669 -11.25584 34986 ft 443 kts 123°
2026-05-04 22:04 61.36347 -11.14799 34998 ft 443 kts 123°
2026-05-04 22:05 61.33016 -11.04037 34986 ft 443 kts 123°
2026-05-04 22:05 61.29674 -10.93295 34986 ft 443 kts 123°
2026-05-04 22:06 61.26328 -10.82576 35003 ft 443 kts 123°
2026-05-04 22:06 61.22971 -10.71877 35001 ft 443 kts 124°
2026-05-04 22:07 61.19608 -10.61213 35004 ft 443 kts 124°
2026-05-04 22:07 61.16234 -10.50566 35001 ft 443 kts 124°
2026-05-04 22:08 61.12854 -10.39949 34986 ft 443 kts 124°
2026-05-04 22:08 61.09463 -10.29343 34986 ft 443 kts 124°
2026-05-04 22:09 61.06065 -10.18761 35003 ft 443 kts 124°
2026-05-04 22:09 61.02659 -10.08202 34986 ft 443 kts 124°
2026-05-04 22:10 60.98985 -9.98103 35001 ft 441 kts 137°
2026-05-04 22:10 60.94213 -9.90289 35001 ft 439 kts 146°
2026-05-04 22:11 60.89170 -9.83234 34986 ft 440 kts 147°
2026-05-04 22:11 60.84159 -9.76078 35001 ft 440 kts 146°
2026-05-04 22:12 60.79198 -9.68759 35000 ft 440 kts 145°
2026-05-04 22:12 60.74258 -9.61393 35001 ft 440 kts 145°
2026-05-04 22:13 60.69322 -9.54051 34987 ft 440 kts 145°
2026-05-04 22:13 60.64372 -9.46731 34998 ft 440 kts 145°
2026-05-04 22:14 60.59421 -9.39448 35003 ft 440 kts 145°
2026-05-04 22:14 60.54461 -9.32180 35003 ft 440 kts 145°
2026-05-04 22:15 60.49498 -9.24936 35004 ft 440 kts 145°
2026-05-04 22:15 60.44531 -9.17709 34999 ft 440 kts 145°
2026-05-04 22:16 60.39566 -9.10517 34996 ft 440 kts 145°
2026-05-04 22:16 60.34591 -9.03336 35003 ft 440 kts 146°
2026-05-04 22:17 60.29617 -8.96184 35003 ft 440 kts 146°
2026-05-04 22:17 60.24636 -8.89045 34999 ft 440 kts 146°
2026-05-04 22:18 60.19651 -8.81934 35000 ft 440 kts 146°
2026-05-04 22:18 60.14662 -8.74845 35001 ft 440 kts 146°
2026-05-04 22:19 60.09675 -8.67780 35004 ft 440 kts 146°
2026-05-04 22:19 60.04680 -8.60732 35003 ft 440 kts 146°
2026-05-04 22:20 59.99681 -8.53709 34997 ft 440 kts 146°
2026-05-04 22:20 59.94677 -8.46706 34999 ft 440 kts 146°
2026-05-04 22:21 59.89675 -8.39728 34998 ft 440 kts 146°
2026-05-04 22:21 59.84669 -8.32767 34999 ft 440 kts 146°
2026-05-04 22:22 59.79660 -8.25831 35003 ft 440 kts 146°
2026-05-04 22:22 59.74641 -8.18909 35001 ft 440 kts 146°
2026-05-04 22:23 59.69627 -8.12018 35000 ft 440 kts 146°
2026-05-04 22:23 59.64603 -8.05139 35000 ft 440 kts 146°
2026-05-04 22:24 59.59574 -7.98281 35003 ft 440 kts 146°
2026-05-04 22:24 59.54549 -7.91453 35003 ft 440 kts 146°
2026-05-04 22:25 59.49519 -7.84643 35003 ft 440 kts 147°
2026-05-04 22:25 59.44483 -7.77846 34998 ft 440 kts 147°
2026-05-04 22:26 59.39442 -7.71070 35004 ft 440 kts 147°
2026-05-04 22:26 59.34403 -7.64322 35003 ft 440 kts 147°
2026-05-04 22:27 59.29355 -7.57587 34998 ft 440 kts 147°
2026-05-04 22:27 59.24302 -7.50868 34999 ft 440 kts 147°
2026-05-04 22:28 59.19250 -7.44177 35004 ft 440 kts 147°
2026-05-04 22:28 59.14191 -7.37502 35001 ft 440 kts 147°
2026-05-04 22:29 59.09133 -7.30853 34995 ft 440 kts 147°
2026-05-04 22:29 59.04064 -7.24216 35003 ft 440 kts 147°
2026-05-04 22:30 58.99002 -7.17601 35000 ft 440 kts 147°
2026-05-04 22:30 58.93930 -7.11000 35002 ft 440 kts 147°
2026-05-04 22:31 58.88854 -7.04423 35000 ft 440 kts 147°
2026-05-04 22:31 58.83777 -6.97864 34997 ft 440 kts 147°
2026-05-04 22:32 58.78702 -6.91334 34999 ft 440 kts 147°
2026-05-04 22:32 58.73619 -6.84817 35003 ft 439 kts 147°
2026-05-04 22:33 58.68534 -6.78317 35003 ft 440 kts 147°
2026-05-04 22:33 58.63449 -6.71841 35002 ft 440 kts 147°
2026-05-04 22:34 58.58355 -6.65382 34999 ft 440 kts 147°
2026-05-04 22:34 58.53258 -6.58941 34997 ft 440 kts 148°
2026-05-04 22:35 58.48165 -6.52524 34758 ft 438 kts 148°
2026-05-04 22:35 58.45618 -6.49328 34066 ft 440 kts 148°
2026-05-04 22:35 58.43058 -6.46121 33330 ft 442 kts 148°
2026-05-04 22:35 58.40487 -6.42902 32581 ft 444 kts 148°
2026-05-04 22:36 58.37903 -6.39673 31808 ft 446 kts 148°
2026-05-04 22:36 58.35311 -6.36438 31000 ft 447 kts 148°
2026-05-04 22:36 58.32712 -6.33200 30177 ft 449 kts 148°
2026-05-04 22:36 58.30103 -6.29955 29489 ft 447 kts 148°
2026-05-04 22:37 58.27518 -6.26748 28910 ft 442 kts 148°
2026-05-04 22:37 58.24968 -6.23587 28322 ft 437 kts 148°
2026-05-04 22:37 58.22435 -6.20454 27716 ft 433 kts 148°
2026-05-04 22:37 58.19821 -6.17730 27101 ft 427 kts 158°
2026-05-04 22:38 58.19257 -6.17279 26985 ft 426 kts 159°
2026-05-04 22:38 58.18036 -6.16408 26718 ft 424 kts 162°
2026-05-04 22:38 58.16871 -6.15682 26472 ft 422 kts 164°
2026-05-04 22:39 58.15040 -6.14682 26080 ft 419 kts 166°
2026-05-04 22:39 58.12239 -6.13338 25476 ft 414 kts 168°
2026-05-04 22:39 58.09452 -6.12074 24874 ft 411 kts 168°
2026-05-04 22:39 58.06695 -6.10808 24262 ft 407 kts 167°
2026-05-04 22:40 58.03972 -6.09508 23735 ft 402 kts 167°
2026-05-04 22:40 58.01280 -6.08175 23445 ft 401 kts 166°
2026-05-04 22:40 57.98594 -6.06815 23213 ft 401 kts 166°
2026-05-04 22:40 57.95910 -6.05436 22990 ft 400 kts 166°
2026-05-04 22:41 57.93236 -6.04053 22771 ft 399 kts 166°
2026-05-04 22:41 57.90573 -6.02673 22534 ft 397 kts 166°
2026-05-04 22:41 57.87917 -6.01301 22317 ft 396 kts 166°
2026-05-04 22:41 57.85268 -5.99935 22092 ft 395 kts 166°
2026-05-04 22:42 57.82630 -5.98579 21869 ft 393 kts 166°
2026-05-04 22:42 57.80002 -5.97231 21645 ft 392 kts 166°
2026-05-04 22:42 57.77382 -5.95892 21412 ft 390 kts 166°
2026-05-04 22:42 57.74771 -5.94559 21195 ft 389 kts 166°
2026-05-04 22:43 57.72169 -5.93233 20973 ft 388 kts 166°
2026-05-04 22:43 57.69575 -5.91913 20747 ft 386 kts 166°
2026-05-04 22:43 57.66991 -5.90600 20523 ft 385 kts 166°
2026-05-04 22:43 57.64415 -5.89291 20309 ft 384 kts 166°
2026-05-04 22:44 57.61847 -5.87990 20073 ft 382 kts 166°
2026-05-04 22:44 57.59290 -5.86696 19849 ft 381 kts 166°
2026-05-04 22:44 57.56743 -5.85410 19629 ft 380 kts 166°
2026-05-04 22:44 57.54200 -5.84126 19401 ft 379 kts 166°
2026-05-04 22:45 57.51666 -5.82848 19177 ft 378 kts 166°
2026-05-04 22:45 57.46611 -5.80307 18727 ft 377 kts 166°
2026-05-04 22:45 57.44091 -5.79041 18504 ft 375 kts 166°
2026-05-04 22:46 57.43310 -5.78648 18432 ft 374 kts 166°
2026-05-04 22:46 57.42378 -5.78181 18349 ft 374 kts 166°
2026-05-04 22:46 57.39879 -5.76931 18125 ft 372 kts 166°
2026-05-04 22:46 57.37386 -5.75686 17900 ft 371 kts 166°
2026-05-04 22:47 57.34901 -5.74448 17675 ft 370 kts 166°
2026-05-04 22:47 57.32426 -5.73216 17453 ft 368 kts 166°
2026-05-04 22:47 57.29966 -5.71991 17224 ft 366 kts 166°
2026-05-04 22:47 57.27514 -5.70771 17004 ft 365 kts 166°
2026-05-04 22:48 57.25071 -5.69557 16777 ft 364 kts 166°
2026-05-04 22:48 57.22631 -5.68348 16554 ft 364 kts 166°
2026-05-04 22:48 57.20196 -5.67143 16327 ft 362 kts 166°
2026-05-04 22:48 57.17773 -5.65946 16110 ft 360 kts 166°
2026-05-04 22:49 57.15360 -5.64757 15880 ft 359 kts 166°
2026-05-04 22:49 57.12952 -5.63570 15655 ft 358 kts 166°
2026-05-04 22:49 57.10553 -5.62389 15434 ft 357 kts 166°
2026-05-04 22:49 57.08165 -5.61218 15208 ft 352 kts 167°
2026-05-04 22:50 57.05857 -5.60081 14997 ft 337 kts 167°
2026-05-04 22:50 57.03646 -5.58991 14837 ft 322 kts 167°
2026-05-04 22:50 57.01534 -5.57952 14701 ft 308 kts 167°
2026-05-04 22:50 56.99497 -5.56954 14558 ft 301 kts 167°
2026-05-04 22:51 56.97489 -5.55974 14417 ft 299 kts 167°
2026-05-04 22:51 56.95486 -5.54998 14268 ft 298 kts 167°
2026-05-04 22:51 56.93482 -5.54021 14116 ft 298 kts 167°
2026-05-04 22:51 56.91484 -5.53049 13967 ft 297 kts 167°
2026-05-04 22:52 56.89491 -5.52082 13807 ft 296 kts 167°
2026-05-04 22:52 56.87506 -5.51117 13667 ft 296 kts 167°
2026-05-04 22:52 56.85524 -5.50156 13518 ft 295 kts 167°
2026-05-04 22:52 56.83543 -5.49197 13368 ft 295 kts 167°
2026-05-04 22:53 56.81570 -5.48243 13233 ft 294 kts 167°
2026-05-04 22:53 56.79599 -5.47289 13067 ft 294 kts 167°
2026-05-04 22:53 56.77632 -5.46336 12917 ft 293 kts 167°
2026-05-04 22:53 56.75670 -5.45388 12753 ft 292 kts 167°
2026-05-04 22:54 56.73711 -5.44443 12617 ft 292 kts 167°
2026-05-04 22:54 56.71754 -5.43500 12474 ft 291 kts 167°
2026-05-04 22:54 56.69805 -5.42561 12321 ft 291 kts 167°
2026-05-04 22:54 56.67856 -5.41622 12182 ft 290 kts 167°
2026-05-04 22:55 56.65913 -5.40686 12017 ft 289 kts 167°
2026-05-04 22:55 56.63978 -5.39760 11872 ft 287 kts 167°
2026-05-04 22:55 56.62052 -5.38842 11709 ft 286 kts 167°
2026-05-04 22:55 56.60132 -5.37924 11580 ft 285 kts 167°
2026-05-04 22:56 56.58218 -5.37007 11429 ft 285 kts 167°
2026-05-04 22:56 56.56304 -5.36091 11276 ft 285 kts 167°
2026-05-04 22:56 56.54397 -5.35181 11138 ft 284 kts 167°
2026-05-04 22:56 56.52491 -5.34273 10972 ft 283 kts 167°
2026-05-04 22:57 56.50590 -5.33369 10824 ft 283 kts 167°
2026-05-04 22:57 56.48693 -5.32467 10662 ft 282 kts 167°
2026-05-04 22:57 56.46800 -5.31569 10528 ft 282 kts 167°
2026-05-04 22:57 56.44909 -5.30674 10383 ft 281 kts 167°
2026-05-04 22:58 56.43064 -5.29801 10230 ft 280 kts 167°
2026-05-04 22:58 56.42361 -5.29468 10175 ft 280 kts 167°
2026-05-04 22:58 56.40839 -5.28746 10023 ft 279 kts 167°
2026-05-04 22:58 56.38965 -5.27861 9750 ft 278 kts 167°
2026-05-04 22:59 56.37098 -5.26977 9513 ft 278 kts 167°
2026-05-04 22:59 56.35234 -5.26092 9294 ft 277 kts 167°
2026-05-04 22:59 56.33375 -5.25213 9069 ft 276 kts 167°
2026-05-04 22:59 56.31524 -5.24338 8833 ft 275 kts 167°
2026-05-04 23:00 56.29682 -5.23470 8620 ft 273 kts 167°
2026-05-04 23:00 56.27849 -5.22605 8399 ft 272 kts 167°
2026-05-04 23:00 56.26017 -5.21744 8175 ft 272 kts 167°
2026-05-04 23:00 56.24192 -5.20888 7950 ft 272 kts 167°
2026-05-04 23:01 56.22369 -5.20033 7724 ft 271 kts 167°
2026-05-04 23:01 56.20549 -5.19183 7491 ft 270 kts 167°
2026-05-04 23:01 56.18736 -5.18339 7282 ft 269 kts 167°
2026-05-04 23:01 56.16929 -5.17494 7052 ft 268 kts 167°
2026-05-04 23:02 56.15134 -5.16649 6826 ft 267 kts 167°
2026-05-04 23:02 56.13347 -5.15813 6606 ft 266 kts 167°
2026-05-04 23:02 56.11564 -5.14984 6383 ft 265 kts 167°
2026-05-04 23:02 56.09782 -5.14153 6156 ft 265 kts 167°
2026-05-04 23:03 56.08005 -5.13329 5962 ft 263 kts 167°
2026-05-04 23:03 56.06238 -5.12504 5921 ft 263 kts 167°
2026-05-04 23:03 56.04468 -5.11680 5917 ft 263 kts 168°
2026-05-04 23:03 56.02702 -5.10864 5920 ft 263 kts 167°
2026-05-04 23:04 56.00930 -5.10041 5916 ft 263 kts 167°
2026-05-04 23:04 55.99164 -5.09217 5919 ft 263 kts 167°
2026-05-04 23:04 55.97393 -5.08395 5917 ft 263 kts 167°
2026-05-04 23:04 55.95628 -5.07575 5919 ft 263 kts 167°
2026-05-04 23:05 55.93849 -5.06756 5917 ft 266 kts 168°
2026-05-04 23:05 55.92056 -5.05934 5916 ft 267 kts 167°
2026-05-04 23:05 55.90258 -5.05108 5918 ft 268 kts 167°
2026-05-04 23:05 55.88458 -5.04284 5918 ft 268 kts 168°
2026-05-04 23:06 55.86656 -5.03459 5917 ft 268 kts 167°
2026-05-04 23:06 55.84856 -5.02631 5918 ft 268 kts 167°
2026-05-04 23:06 55.83055 -5.01805 5919 ft 268 kts 168°
2026-05-04 23:06 55.81253 -5.00980 5918 ft 268 kts 168°
2026-05-04 23:07 55.79507 -4.99876 5916 ft 270 kts 151°
2026-05-04 23:07 55.78143 -4.97592 5921 ft 273 kts 128°
2026-05-04 23:07 55.77111 -4.94766 5894 ft 274 kts 122°
2026-05-04 23:07 55.76182 -4.91826 5786 ft 274 kts 119°
2026-05-04 23:08 55.75298 -4.88845 5677 ft 273 kts 118°
2026-05-04 23:08 55.74418 -4.85867 5584 ft 273 kts 118°
2026-05-04 23:08 55.73537 -4.82886 5489 ft 273 kts 118°
2026-05-04 23:08 55.72627 -4.79941 5386 ft 272 kts 120°
2026-05-04 23:09 55.71706 -4.77063 5289 ft 265 kts 121°
2026-05-04 23:09 55.70802 -4.74246 5198 ft 263 kts 120°
2026-05-04 23:09 55.69906 -4.71452 5092 ft 261 kts 121°
2026-05-04 23:09 55.69012 -4.68673 4995 ft 260 kts 121°
2026-05-04 23:10 55.68118 -4.65891 4888 ft 260 kts 121°
2026-05-04 23:10 55.67227 -4.63119 4796 ft 259 kts 121°
2026-05-04 23:10 55.66338 -4.60354 4685 ft 256 kts 121°
2026-05-04 23:10 55.65474 -4.57664 4600 ft 249 kts 121°
2026-05-04 23:11 55.64621 -4.55012 4509 ft 248 kts 121°
2026-05-04 23:11 55.63771 -4.52363 4433 ft 248 kts 121°
2026-05-04 23:11 55.62922 -4.49723 4416 ft 247 kts 121°
2026-05-04 23:11 55.62074 -4.47085 4419 ft 247 kts 121°
2026-05-04 23:12 55.61226 -4.44452 4419 ft 247 kts 121°
2026-05-04 23:12 55.60378 -4.41820 4420 ft 247 kts 121°
2026-05-04 23:12 55.59535 -4.39207 4418 ft 241 kts 121°
2026-05-04 23:12 55.58714 -4.36657 4421 ft 237 kts 121°
2026-05-04 23:13 55.57900 -4.34131 4418 ft 237 kts 121°
2026-05-04 23:13 55.57086 -4.31610 4419 ft 237 kts 121°
2026-05-04 23:13 55.56269 -4.29083 4418 ft 237 kts 121°
2026-05-04 23:13 55.55453 -4.26559 4419 ft 237 kts 121°
2026-05-04 23:14 55.54628 -4.24045 4419 ft 237 kts 122°
2026-05-04 23:14 55.53804 -4.21595 4416 ft 229 kts 126°
2026-05-04 23:14 55.52642 -4.19817 4420 ft 221 kts 159°
2026-05-04 23:14 55.51168 -4.19453 4424 ft 214 kts 191°
2026-05-04 23:15 55.49790 -4.20333 4419 ft 211 kts 213°
2026-05-04 23:15 55.48659 -4.21936 4438 ft 206 kts 226°
2026-05-04 23:15 55.47688 -4.23661 4442 ft 194 kts 228°
2026-05-04 23:15 55.46753 -4.25361 4423 ft 193 kts 228°
2026-05-04 23:16 55.45829 -4.27071 4270 ft 192 kts 231°
2026-05-04 23:16 55.45106 -4.29017 4081 ft 190 kts 244°
2026-05-04 23:16 55.44545 -4.31099 3883 ft 186 kts 246°
2026-05-04 23:16 55.44131 -4.33193 3693 ft 180 kts 260°
2026-05-04 23:17 55.44048 -4.35360 3468 ft 177 kts 270°
2026-05-04 23:17 55.44122 -4.37518 3157 ft 177 kts 277°
2026-05-04 23:17 55.44335 -4.39641 2832 ft 176 kts 286°
2026-05-04 23:17 55.44817 -4.41621 2504 ft 176 kts 292°
2026-05-04 23:18 55.45305 -4.43588 2201 ft 175 kts 298°
2026-05-04 23:18 55.45995 -4.45310 1934 ft 169 kts 303°
2026-05-04 23:18 55.46613 -4.46974 1693 ft 156 kts 299°
2026-05-04 23:18 55.47149 -4.48533 1454 ft 143 kts 299°
2026-05-04 23:19 55.47643 -4.49952 1256 ft 130 kts 299°
2026-05-04 23:19 55.48105 -4.51280 1044 ft 126 kts 299°
2026-05-04 23:19 55.48559 -4.52592 841 ft 126 kts 299°
2026-05-04 23:19 55.49015 -4.53906 659 ft 126 kts 300°
2026-05-04 23:20 55.49469 -4.55217 462 ft 124 kts 300°
2026-05-04 23:20 55.49904 -4.56476 265 ft 117 kts 300°
2026-05-04 23:20 55.50328 -4.57714 96 ft 118 kts 299°
2026-05-04 23:20 55.50694 -4.58789 49 ft 61 kts 304°
2026-05-04 23:21 55.50839 -4.59184 48 ft 19 kts 302°
2026-05-04 23:21 55.50899 -4.59247 51 ft 5 kts 21°
2026-05-04 23:21 55.50920 -4.59189 48 ft 9 kts 63°
2026-05-04 23:21 55.50965 -4.59025 49 ft 20 kts 64°
2026-05-04 23:22 55.51029 -4.58820 50 ft 11 kts 42°
2026-05-04 23:22 55.51061 -4.58844 48 ft 8 kts 294°
2026-05-04 23:22 55.51113 -4.58953 49 ft 12 kts 328°
2026-05-04 23:22 55.51185 -4.58935 48 ft 7 kts 41°
2026-05-04 23:23 55.51199 -4.58903 49 ft 0 kts 55°